{"data":{"norad_id":39417,"intl_designator":"2013-066B","name":"ZACUBE-1 (TSHEPISOSAT)","alt_names":[],"object_type":"PAYLOAD","status":"ACTIVE","operator":null,"country":"SAFR","launch_date":"2013-11-21","launch_site_code":"DLS","launch_vehicle":null,"mission":null,"orbit_class":"UNKNOWN","rcs_meters":0.069,"size_class":null,"mass_kg":null,"dimensions":null,"purposes":["comms","tech_demo"],"wikipedia_slug":null,"has_3d_model":false,"image_url":null,"decayed_at":null,"tle_current":{"epoch":"2026-09-20T04:09:04.792896Z","epoch_age_seconds":42768,"freshness":"FRESH","line1":"1 39417U 13066B   26263.17297214  .00003336  00000+0  25646-3 0  9992","line2":"2 39417  97.8156 226.0092 0038977 295.0993  64.6188 15.01846354694980","mean_motion":15.01846354,"eccentricity":0.0038977,"inclination_deg":97.8156,"raan_deg":226.0092,"arg_perigee_deg":295.0993,"mean_anomaly_deg":64.6188,"bstar":0.00025646,"rev_number":69498,"period_min":95.881978616835,"perigee_km":534.15561260205,"apogee_km":588.2505442494,"semimajor_km":6939.3400784257,"source":"CELESTRAK","updated_at":"2026-09-20T09:00:48.022177Z"}}}